Find Starlink 30836

NORAD ID: 58221 Int'l Des: 2023-170 Owner: SPXS Country: US Constellation: starlink operational
LEOCIRCULAR

Live Position

Loading 3D Globe...

About Starlink 30836

Description loading...

Upcoming Passes

Passes for default location (London). Set your location on the main map for personalized predictions.

Altitude History

Loading altitude history...

Two-Line Element Set

1 58221U 23170R 26124.36768769 .00003583 00000-0 13968-3 0 9997
2 58221 43.0001 239.8752 0001019 259.8376 100.2360 15.27578244138813
Epoch: May 4, 2026 • Age: 20 hours

Current Status

Altitude 495.5 km
Velocity 7.62 km/s
Sub-Earth Point -42.72°S, 140.93°W
Launch Date Nov 4, 2023
Age 2.4 years
Type internet

Technical Details

Classification Payload
Mass 730.00 kg
Dry Mass 700.00 kg
Total Mass 730.00 kg
Length 0.30 m
Diameter 4.10 m
Span 29.00 m
Shape Box + pan
Manufacturer SPXS
Bus Type Starlink V2M
Phase Status In Orbit
Owner/State SPXS/US

Most Searched